Flag for Austria Weather past 2 weeks in St. Pölten, Lower Austria, Austria

Now
57 °F

Partly cloudy.


Feels Like: 57 °F
Forecast: 38 / 44 °F
Wind: 3 mph from North

Location: Tulln Airport

Current Time: Oct 22, 2014 at 2:25:03 AM

Latest Report: Oct 21, 2014 at 10:50 PM


Visibility: 15 mi

Pressure: 29.62 "Hg

Humidity: 88%

Dew point: 54 °F

Location of St. PöltenLocation

Historic Weather in St. Pölten — Graph

°F

St. Pölten temperature yesterday

Maximum temperature yesterday: 63 °F (at 12:50 PM)
Minimum temperature yesterday: 55 °F (at 6:50 AM)
Average temperature yesterday: 58 °F

Past Weeks' High & Low Weather Summary

 TemperatureHumidityPressure
High72 °F (Oct 12, 1:50 PM)100% (Oct 8, 10:50 PM)30.30 "Hg (Oct 8, 10:50 PM)
Low48 °F (Oct 19, 5:50 AM)53% (Oct 14, 3:50 PM)29.56 "Hg (Oct 14, 10:50 PM)
Average59 °F87%29.97 "Hg
* Reported Oct 6 10:50 PM — Oct 21 10:50 PM, St. Pölten, Weather by CustomWeather, © 2014

Note: Actual official high and low records may vary slightly from our data, if they occured in-between our weather recording intervals... More about our weather records

Advertising

St. Pölten weather history for previous 24 hours

 ConditionsComfort  
Time TempWeatherWind HumidityBarometerVisibility
10:50 PM
Oct 21
57 °FPartly cloudy.3 mph88%29.62 "Hg16 mi
9:50 PM55 °FPartly cloudy.2 mph94%29.65 "Hg16 mi
8:50 PM55 °FPassing clouds.2 mph100%29.71 "Hg16 mi
7:50 PM57 °FPartly cloudy.1 mph94%29.74 "Hg19 mi
6:50 PM57 °FBroken clouds.3 mph88%29.74 "Hg22 mi
5:50 PM59 °FPartly sunny.7 mph82%29.77 "Hg22 mi
4:50 PM61 °FPartly sunny.10 mph77%29.80 "Hg25 mi
3:50 PM63 °FPartly sunny.15 mph68%29.83 "Hg25 mi
2:50 PM63 °FPartly sunny.15 mph73%29.83 "Hg25 mi
1:50 PM63 °FBroken clouds.18 mph68%29.86 "Hg25 mi
12:50 PM63 °FPartly sunny.18 mph73%29.89 "Hg25 mi
11:50 AM61 °FPartly sunny.13 mph83%29.92 "Hg19 mi
10:50 AM59 °FBroken clouds.12 mph94%29.92 "Hg19 mi
9:50 AM57 °FPartly sunny.3 mph94%29.92 "Hg19 mi
8:50 AM55 °FBroken clouds.7 mph100%29.92 "Hg9 mi
7:50 AM55 °FPartly cloudy.3 mph100%29.92 "Hg4 mi
6:50 AM55 °FLight rain. Passing clouds.7 mph100%29.92 "Hg6 mi
5:50 AM57 °FRain. Partly cloudy.16 mph94%29.92 "Hg9 mi
Weather by CustomWeather, © 2014

See weather overviewHow to use our weather pages